Overview Statistics Trail Chart Weather Telemetry Raw packets
 

This is the latest recevied weather packets stored in our database for station/object LA4M-10. If no packets are shown the sender has not sent any weather packets the latest 10 day(s).

<< 13 14 15 16 17 18 19 >>
Time Temp. Humidity Pressure Rain* Wind** Luminosity Snow
1788325139 10.56° C 100% 937.3 hPa - - - -
1788324230 11.11° C 100% 937.2 hPa - - - -
1788323330 11.11° C 100% 937.1 hPa - - - -
1788322430 11.11° C 100% 937.1 hPa - - - -
1788321530 11.11° C 100% 937.2 hPa - - - -
1788320630 11.11° C 100% 937.1 hPa - - - -
1788319730 11.11° C 100% 937 hPa - - - -
1788318830 11.11° C 100% 937 hPa - - - -
1788317930 11.67° C 100% 937 hPa - - - -
1788317030 11.67° C 100% 937 hPa - - - -
1788316129 11.67° C 100% 937 hPa - - - -
1788315229 11.67° C 100% 937.1 hPa - - - -
1788314329 11.67° C 100% 937.1 hPa - - - -
1788313429 11.11° C 100% 937.3 hPa - - - -
1788312529 11.11° C 100% 937.4 hPa - - - -
1788311629 11.67° C 100% 937.4 hPa - - - -
1788310729 11.67° C 100% 937.3 hPa - - - -
1788309829 11.67° C 100% 937.4 hPa - - - -
1788308929 11.67° C 100% 937.5 hPa - - - -
1788308028 11.67° C 100% 937.5 hPa - - - -
1788307128 11.67° C 100% 937.6 hPa - - - -
1788306228 11.67° C 100% 937.9 hPa - - - -
1788305328 12.22° C 100% 937.9 hPa - - - -
1788304428 12.78° C 100% 938.2 hPa - - - -
1788303528 12.22° C 100% 938.1 hPa - - - -

* Rain since midnight (hover to see other rain measurements)
** Current wind speed in m/s (hover to see current wind gust speed)